Voltar ao catálogo

HG-01

AtivoCiênciaGEO
NORAD 59069·PAYLOAD·🇨🇳 China

Lançado Feb 29, 2024 de Xichang Satellite Launch Center

Loading…

TLE

AtualizadoSource: Space-Track

Época: Sep 14, 2026, 13:57 UTC

1 59069U 24040A   26257.58177438  .00000148  00000-0  00000-0 0  9997
2 59069   0.0903 338.6649 0001465  40.3077 217.6952  1.00274108  8226

Acompanhe HG-01 em tempo real com AllMySat

Download on the App Store